User: anonymous   Login
Location: Sungai Bunut
(2.6333°N, 113.7333°E)
Time: 11:35:34
(UTC+00:00)
Language:

Cosmos 2154 Rocket - Orbit

View from above orbital plane
View from above orbital plane
View from above satellite
View from above satellite

Ground track
Ground track

The orbit data is extracted from the following two-line orbital elements,

1 21667U 91059B   22019.94366205  .00000157  00000-0  14872-3 0  9993
2 21667  82.9052 199.7003 0019703 256.2791 211.8410 13.75113476526009
Epoch (UTC): 19 January 2022 22:38:52
Eccentricity: 0.0019703
inclination: 82.9052°
perigee height: 967 km
apogee height: 996 km
right ascension of ascending node: 199.7003°
argument of perigee: 256.2791°
revolutions per day: 13.75113476
mean anomaly at epoch: 211.8410°
orbit number at epoch: 52600

The dashed part of the orbit path shows where the satellite is in the earth's shadow,  

DLR